Tracking 19283 objects as of 17-Nov-2018
HD Live streaming from Space Station
objects crossing your sky now

COSMOS 1779 (GLONASS)

Track COSMOS 1779 (GLONASS) now!
COSMOS 1779 (GLONASS) is classified as:


NORAD ID: 16962
Int'l Code: 1986-071B
Perigee: 19,111.4 km
Apogee: 19,162.5 km
Inclination: 64.1 °
Period: 675.7 minutes
Semi major axis: 25507 km
RCS: 1.5271 m2 (large)
Launch date: September 16, 1986
Source: Commonwealth of Independent States (former USSR) (CIS)
Launch site: TYURATAM MISSILE AND SPACE COMPLEX (TTMTR)
SV:
aabbcc
Your satellite tracking list
Your tracking list is empty




NASA's NSSDC Master Catalog

Two Line Element Set (TLE):
1 16962U 86071B   18320.26446275  .00000079  00000-0  00000+0 0  9991
2 16962  64.1057 167.6271 0010010  33.5485 314.6234  2.13103104250329
Source of the keplerian elements: AFSPC